RYR17FY LFOB-LPPT

Flight info

Callsign RYR17FY
Flight time 2h 9m
Altitude 35000
Route LGL UT176 TERPO UN872 ERIGA UZ218 FUJTI/N0440F370 DCT BAKUP DCT BATAX DCT INBOM
Aircraft B738/M-SDGIJ1LRWY/SB1

Departure

Time 2026-05-08 13:16
Airport Beauvais-Tillé airport (LFOB)

Arrival

Time 2026-05-08 15:26
Airport Lisbon Humberto Delgado Airport (LPPT)
Time Latitude Longitude Altitude Speed Heading
2026-05-08 12:41 49.45783 2.11223 348 ft 0 kts 33°
2026-05-08 13:08 49.45764 2.11205 355 ft 4 kts 23°
2026-05-08 13:08 49.45739 2.11194 356 ft 4 kts 357°
2026-05-08 13:08 49.45716 2.11206 356 ft 3 kts 307°
2026-05-08 13:08 49.45714 2.11210 356 ft 3 kts 304°
2026-05-08 13:13 49.45715 2.11208 356 ft 2 kts 304°
2026-05-08 13:13 49.45732 2.11168 351 ft 6 kts 304°
2026-05-08 13:13 49.45761 2.11104 349 ft 9 kts 303°
2026-05-08 13:14 49.45786 2.11002 348 ft 10 kts 252°
2026-05-08 13:14 49.45731 2.10941 352 ft 10 kts 207°
2026-05-08 13:14 49.45672 2.10894 351 ft 9 kts 207°
2026-05-08 13:14 49.45650 2.10845 354 ft 3 kts 239°
2026-05-08 13:15 49.45636 2.10843 353 ft 2 kts 164°
2026-05-08 13:15 49.45628 2.10855 354 ft 0 kts 123°
2026-05-08 13:15 49.45628 2.10856 350 ft 2 kts 123°
2026-05-08 13:15 49.45476 2.11205 342 ft 81 kts 124°
2026-05-08 13:16 49.45023 2.12249 330 ft 151 kts 123°
2026-05-08 13:16 49.44371 2.13690 889 ft 166 kts 124°
2026-05-08 13:16 49.43905 2.15247 1867 ft 168 kts 95°
2026-05-08 13:16 49.44187 2.17065 2395 ft 191 kts 62°
2026-05-08 13:17 49.45205 2.18585 2652 ft 219 kts 28°
2026-05-08 13:17 49.46743 2.18812 3058 ft 238 kts 348°
2026-05-08 13:17 49.48209 2.17397 3448 ft 261 kts 316°
2026-05-08 13:17 49.49214 2.15038 4228 ft 269 kts 286°
2026-05-08 13:18 49.49262 2.12273 5371 ft 262 kts 264°
2026-05-08 13:18 49.49100 2.09436 6152 ft 271 kts 268°
2026-05-08 13:18 49.49086 2.06471 6955 ft 277 kts 271°
2026-05-08 13:18 49.48814 2.03527 7749 ft 282 kts 248°
2026-05-08 13:19 49.47633 2.01161 8629 ft 284 kts 216°
2026-05-08 13:19 49.45940 1.99565 9455 ft 289 kts 211°
2026-05-08 13:19 49.44407 1.97606 10233 ft 292 kts 227°
2026-05-08 13:19 49.43069 1.95177 10722 ft 308 kts 231°
2026-05-08 13:20 49.41683 1.92437 10921 ft 333 kts 232°
2026-05-08 13:20 49.40236 1.89571 11428 ft 344 kts 232°
2026-05-08 13:20 49.38746 1.86684 12263 ft 345 kts 231°
2026-05-08 13:20 49.37258 1.83859 13103 ft 346 kts 230°
2026-05-08 13:21 49.35720 1.80992 13869 ft 350 kts 230°
2026-05-08 13:21 49.34156 1.78110 14557 ft 353 kts 230°
2026-05-08 13:21 49.32575 1.75207 15268 ft 355 kts 230°
2026-05-08 13:21 49.30981 1.72292 15968 ft 358 kts 230°
2026-05-08 13:22 49.29368 1.69352 16642 ft 362 kts 230°
2026-05-08 13:22 49.27737 1.66383 17296 ft 366 kts 230°
2026-05-08 13:22 49.26090 1.63388 17976 ft 369 kts 230°
2026-05-08 13:22 49.24429 1.60371 18618 ft 372 kts 230°
2026-05-08 13:23 49.22755 1.57336 19172 ft 376 kts 230°
2026-05-08 13:23 49.21059 1.54268 19719 ft 379 kts 230°
2026-05-08 13:23 49.19346 1.51171 20266 ft 383 kts 231°
2026-05-08 13:23 49.17616 1.48047 20802 ft 387 kts 231°
2026-05-08 13:24 49.15871 1.44898 21337 ft 390 kts 232°
2026-05-08 13:24 49.14111 1.41726 21880 ft 393 kts 232°
2026-05-08 13:24 49.12336 1.38528 22377 ft 397 kts 232°
2026-05-08 13:24 49.10542 1.35305 22877 ft 400 kts 233°
2026-05-08 13:25 49.08734 1.32059 23394 ft 403 kts 233°
2026-05-08 13:25 49.06912 1.28787 23831 ft 406 kts 234°
2026-05-08 13:25 49.05076 1.25495 24250 ft 409 kts 234°
2026-05-08 13:25 49.03265 1.22150 24646 ft 409 kts 238°
2026-05-08 13:26 49.01760 1.18496 25039 ft 406 kts 246°
2026-05-08 13:26 49.00470 1.14662 25456 ft 407 kts 248°
2026-05-08 13:26 48.99188 1.10801 25851 ft 410 kts 248°
2026-05-08 13:26 48.97887 1.06922 26206 ft 413 kts 247°
2026-05-08 13:27 48.96564 1.03030 26574 ft 415 kts 247°
2026-05-08 13:27 48.95221 0.99129 26946 ft 417 kts 247°
2026-05-08 13:27 48.93864 0.95215 27291 ft 420 kts 246°
2026-05-08 13:27 48.92498 0.91291 27642 ft 422 kts 246°
2026-05-08 13:28 48.91119 0.87340 27983 ft 424 kts 246°
2026-05-08 13:28 48.89731 0.83371 28324 ft 426 kts 246°
2026-05-08 13:28 48.88336 0.79385 28640 ft 428 kts 246°
2026-05-08 13:28 48.86933 0.75382 28946 ft 430 kts 246°
2026-05-08 13:29 48.85522 0.71362 29253 ft 432 kts 246°
2026-05-08 13:29 48.84103 0.67325 29570 ft 434 kts 246°
2026-05-08 13:29 48.82677 0.63273 29882 ft 436 kts 245°
2026-05-08 13:29 48.81248 0.59218 30238 ft 435 kts 245°
2026-05-08 13:30 48.79821 0.55188 30677 ft 432 kts 245°
2026-05-08 13:30 48.78236 0.51315 31073 ft 434 kts 237°
2026-05-08 13:30 48.76305 0.47782 31408 ft 436 kts 233°
2026-05-08 13:30 48.74302 0.44341 31746 ft 435 kts 233°
2026-05-08 13:31 48.72307 0.40907 32099 ft 433 kts 233°
2026-05-08 13:31 48.70332 0.37468 32460 ft 432 kts 233°
2026-05-08 13:31 48.68403 0.34073 32795 ft 431 kts 234°
2026-05-08 13:31 48.66459 0.30633 33138 ft 429 kts 234°
2026-05-08 13:32 48.64524 0.27201 33472 ft 428 kts 234°
2026-05-08 13:32 48.62592 0.23779 33807 ft 427 kts 234°
2026-05-08 13:32 48.60663 0.20366 34089 ft 427 kts 234°
2026-05-08 13:32 48.58734 0.16964 34363 ft 426 kts 233°
2026-05-08 13:33 48.56816 0.13578 34644 ft 424 kts 233°
2026-05-08 13:33 48.54907 0.10190 34914 ft 423 kts 233°
2026-05-08 13:33 48.53005 0.06808 35188 ft 422 kts 233°
2026-05-08 13:33 48.51109 0.03439 35465 ft 420 kts 233°
2026-05-08 13:34 48.49219 0.00086 35729 ft 419 kts 233°
2026-05-08 13:34 48.47333 -0.03256 35982 ft 418 kts 233°
2026-05-08 13:34 48.45451 -0.06586 36247 ft 417 kts 233°
2026-05-08 13:34 48.43575 -0.09899 36534 ft 414 kts 233°
2026-05-08 13:35 48.41706 -0.13196 36789 ft 413 kts 232°
2026-05-08 13:35 48.39839 -0.16487 36981 ft 413 kts 232°
2026-05-08 13:35 48.36087 -0.23089 37010 ft 415 kts 232°
2026-05-08 13:36 48.32331 -0.29635 37002 ft 412 kts 232°
2026-05-08 13:36 48.29210 -0.35005 37007 ft 409 kts 231°
2026-05-08 13:37 48.25475 -0.41419 37000 ft 407 kts 231°
2026-05-08 13:37 48.21155 -0.48831 36999 ft 406 kts 231°
2026-05-08 13:38 48.18041 -0.54165 37000 ft 406 kts 231°
2026-05-08 13:38 48.14315 -0.60535 36999 ft 407 kts 231°
2026-05-08 13:39 48.10569 -0.66925 36998 ft 409 kts 231°
2026-05-08 13:39 48.06802 -0.73334 36996 ft 412 kts 231°
2026-05-08 13:40 48.03028 -0.79738 36994 ft 414 kts 230°
2026-05-08 13:40 47.99209 -0.86205 36992 ft 416 kts 230°
2026-05-08 13:41 47.95376 -0.92677 36988 ft 417 kts 230°
2026-05-08 13:41 47.91513 -0.99186 36988 ft 418 kts 230°
2026-05-08 13:42 47.87659 -1.05663 36982 ft 417 kts 230°
2026-05-08 13:42 47.83806 -1.12123 36979 ft 417 kts 230°
2026-05-08 13:43 47.79959 -1.18557 36970 ft 415 kts 230°
2026-05-08 13:43 47.76145 -1.24922 36968 ft 414 kts 229°
2026-05-08 13:44 47.72312 -1.31303 36969 ft 413 kts 229°
2026-05-08 13:44 47.68485 -1.37660 36964 ft 412 kts 229°
2026-05-08 13:45 47.64662 -1.43995 36956 ft 412 kts 229°
2026-05-08 13:45 47.60841 -1.50313 36954 ft 411 kts 229°
2026-05-08 13:46 47.57019 -1.56617 36960 ft 411 kts 229°
2026-05-08 13:46 47.53194 -1.62918 36947 ft 411 kts 229°
2026-05-08 13:47 47.49364 -1.69214 36944 ft 412 kts 228°
2026-05-08 13:47 47.45526 -1.75511 36947 ft 412 kts 228°
2026-05-08 13:48 47.41679 -1.81809 36949 ft 413 kts 228°
2026-05-08 13:48 47.37822 -1.88108 36943 ft 414 kts 228°
2026-05-08 13:49 47.33706 -1.94034 36938 ft 415 kts 216°
2026-05-08 13:49 47.28769 -1.98442 36933 ft 416 kts 211°
2026-05-08 13:50 47.23793 -2.02820 36953 ft 418 kts 212°
2026-05-08 13:50 47.18814 -2.07252 36943 ft 418 kts 212°
2026-05-08 13:51 47.13839 -2.11685 36926 ft 418 kts 212°
2026-05-08 13:51 47.08867 -2.16105 36930 ft 418 kts 212°
2026-05-08 13:52 47.03899 -2.20511 36944 ft 417 kts 211°
2026-05-08 13:52 46.98971 -2.24871 36942 ft 416 kts 211°
2026-05-08 13:53 46.94013 -2.29248 36935 ft 416 kts 211°
2026-05-08 13:53 46.89061 -2.33612 36942 ft 415 kts 211°
2026-05-08 13:54 46.84111 -2.37962 36948 ft 415 kts 211°
2026-05-08 13:54 46.79164 -2.42302 36940 ft 415 kts 211°
2026-05-08 13:55 46.74216 -2.46636 36929 ft 415 kts 211°
2026-05-08 13:56 46.66794 -2.53122 36939 ft 415 kts 211°
2026-05-08 13:56 46.61835 -2.57443 36947 ft 416 kts 210°
2026-05-08 13:57 46.56868 -2.61763 36946 ft 416 kts 210°
2026-05-08 13:57 46.51895 -2.66078 36947 ft 417 kts 210°
2026-05-08 13:58 46.46911 -2.70393 36935 ft 417 kts 210°
2026-05-08 13:58 46.41919 -2.74706 36939 ft 418 kts 210°
2026-05-08 13:59 46.36920 -2.79017 36939 ft 418 kts 210°
2026-05-08 13:59 46.31914 -2.83326 36926 ft 419 kts 210°
2026-05-08 14:00 46.26936 -2.87599 36928 ft 419 kts 210°
2026-05-08 14:00 46.21901 -2.91961 36933 ft 419 kts 210°
2026-05-08 14:01 46.16940 -2.96287 36928 ft 419 kts 210°
2026-05-08 14:01 46.11943 -3.00636 36926 ft 420 kts 210°
2026-05-08 14:02 46.06942 -3.04974 36926 ft 419 kts 210°
2026-05-08 14:02 46.01939 -3.09302 36930 ft 419 kts 210°
2026-05-08 14:03 45.96942 -3.13616 36922 ft 419 kts 209°
2026-05-08 14:03 45.91933 -3.17930 36912 ft 419 kts 209°
2026-05-08 14:04 45.86931 -3.22230 36917 ft 419 kts 209°
2026-05-08 14:04 45.81931 -3.26518 36912 ft 419 kts 209°
2026-05-08 14:05 45.76966 -3.30761 36911 ft 418 kts 209°
2026-05-08 14:05 45.71971 -3.35030 36907 ft 418 kts 209°
2026-05-08 14:06 45.66982 -3.39286 36905 ft 418 kts 209°
2026-05-08 14:06 45.61979 -3.43542 36902 ft 418 kts 208°
2026-05-08 14:07 45.56978 -3.47786 36896 ft 418 kts 208°
2026-05-08 14:07 45.51974 -3.52024 36894 ft 418 kts 208°
2026-05-08 14:08 45.46971 -3.56253 36892 ft 419 kts 208°
2026-05-08 14:08 45.41956 -3.60483 36888 ft 419 kts 208°
2026-05-08 14:09 45.36934 -3.64710 36888 ft 420 kts 208°
2026-05-08 14:09 45.31905 -3.68934 36885 ft 420 kts 208°
2026-05-08 14:10 45.26868 -3.73155 36883 ft 421 kts 208°
2026-05-08 14:10 45.21824 -3.77374 36878 ft 421 kts 208°
2026-05-08 14:11 45.16772 -3.81591 36881 ft 421 kts 208°
2026-05-08 14:11 45.11748 -3.85776 36879 ft 422 kts 208°
2026-05-08 14:12 45.06649 -3.90014 36879 ft 422 kts 208°
2026-05-08 14:12 45.01611 -3.94194 36878 ft 423 kts 207°
2026-05-08 14:13 44.96533 -3.98397 36876 ft 423 kts 207°
2026-05-08 14:13 44.91453 -4.02593 36872 ft 423 kts 207°
2026-05-08 14:14 44.86376 -4.06779 36870 ft 423 kts 207°
2026-05-08 14:14 44.81292 -4.10962 36873 ft 423 kts 207°
2026-05-08 14:15 44.76206 -4.15137 36871 ft 423 kts 207°
2026-05-08 14:15 44.71120 -4.19304 36874 ft 423 kts 207°
2026-05-08 14:16 44.66060 -4.23441 36873 ft 423 kts 207°
2026-05-08 14:16 44.60943 -4.27617 36873 ft 423 kts 207°
2026-05-08 14:17 44.55886 -4.31735 36870 ft 423 kts 207°
2026-05-08 14:17 44.50792 -4.35875 36875 ft 423 kts 207°
2026-05-08 14:18 44.45698 -4.40009 36876 ft 423 kts 207°
2026-05-08 14:18 44.40596 -4.44142 36878 ft 424 kts 207°
2026-05-08 14:19 44.35541 -4.48387 36870 ft 424 kts 208°
2026-05-08 14:19 44.30499 -4.52685 36890 ft 424 kts 208°
2026-05-08 14:20 44.25454 -4.56969 36883 ft 424 kts 208°
2026-05-08 14:20 44.20408 -4.61230 36891 ft 424 kts 208°
2026-05-08 14:21 44.15349 -4.65488 36891 ft 425 kts 208°
2026-05-08 14:21 44.10293 -4.69734 36883 ft 425 kts 208°
2026-05-08 14:22 44.05233 -4.73974 36888 ft 425 kts 208°
2026-05-08 14:22 44.00172 -4.78206 36894 ft 424 kts 208°
2026-05-08 14:23 43.95077 -4.82459 36898 ft 424 kts 208°
2026-05-08 14:23 43.90014 -4.86676 36895 ft 424 kts 208°
2026-05-08 14:24 43.84950 -4.90885 36896 ft 424 kts 208°
2026-05-08 14:24 43.80745 -4.94375 36898 ft 424 kts 208°
2026-05-08 14:25 43.74856 -4.99252 36898 ft 424 kts 208°
2026-05-08 14:25 43.69792 -5.03436 36894 ft 424 kts 208°
2026-05-08 14:26 43.65556 -5.06930 36900 ft 423 kts 208°
2026-05-08 14:26 43.60496 -5.11096 36918 ft 424 kts 208°
2026-05-08 14:27 43.55458 -5.15236 36899 ft 424 kts 209°
2026-05-08 14:27 43.50355 -5.19421 36894 ft 424 kts 209°
2026-05-08 14:28 43.45326 -5.23537 36891 ft 423 kts 209°
2026-05-08 14:28 43.40270 -5.27668 36887 ft 423 kts 209°
2026-05-08 14:29 43.35175 -5.31821 36891 ft 423 kts 209°
2026-05-08 14:29 43.30121 -5.35933 36894 ft 422 kts 209°
2026-05-08 14:30 43.25073 -5.40032 36890 ft 421 kts 209°
2026-05-08 14:30 43.20061 -5.44095 36885 ft 421 kts 209°
2026-05-08 14:31 43.15024 -5.48170 36890 ft 419 kts 209°
2026-05-08 14:31 43.10011 -5.52217 36889 ft 418 kts 209°
2026-05-08 14:32 43.02506 -5.58262 36888 ft 417 kts 209°
2026-05-08 14:32 42.97515 -5.62272 36901 ft 416 kts 209°
2026-05-08 14:33 42.92508 -5.66287 36895 ft 418 kts 210°
2026-05-08 14:33 42.87482 -5.70310 36896 ft 419 kts 210°
2026-05-08 14:34 42.82456 -5.74326 36925 ft 418 kts 210°
2026-05-08 14:34 42.77431 -5.78333 36919 ft 419 kts 210°
2026-05-08 14:35 42.72407 -5.82332 36932 ft 418 kts 210°
2026-05-08 14:35 42.67383 -5.86322 36923 ft 418 kts 210°
2026-05-08 14:36 42.62370 -5.90297 36929 ft 417 kts 210°
2026-05-08 14:36 42.57354 -5.94267 36924 ft 417 kts 210°
2026-05-08 14:37 42.52336 -5.98231 36909 ft 417 kts 210°
2026-05-08 14:37 42.47328 -6.02179 36912 ft 416 kts 210°
2026-05-08 14:38 42.42325 -6.06116 36900 ft 416 kts 210°
2026-05-08 14:38 42.37324 -6.10044 36890 ft 415 kts 210°
2026-05-08 14:39 42.32331 -6.13959 36889 ft 415 kts 210°
2026-05-08 14:39 42.27342 -6.17864 36892 ft 414 kts 210°
2026-05-08 14:40 42.22361 -6.21755 36885 ft 413 kts 210°
2026-05-08 14:40 42.17421 -6.25607 36891 ft 412 kts 210°
2026-05-08 14:41 42.12462 -6.29467 36891 ft 411 kts 210°
2026-05-08 14:41 42.07509 -6.33314 36889 ft 410 kts 211°
2026-05-08 14:42 42.02567 -6.37147 36897 ft 409 kts 211°
2026-05-08 14:42 41.97635 -6.40965 36894 ft 409 kts 211°
2026-05-08 14:43 41.92712 -6.44769 36898 ft 408 kts 211°
2026-05-08 14:43 41.87801 -6.48557 36904 ft 407 kts 211°
2026-05-08 14:44 41.82894 -6.52336 36890 ft 406 kts 211°
2026-05-08 14:44 41.77995 -6.56103 36893 ft 405 kts 211°
2026-05-08 14:45 41.73103 -6.59857 36893 ft 405 kts 211°
2026-05-08 14:45 41.68318 -6.63789 36888 ft 403 kts 217°
2026-05-08 14:46 41.63860 -6.68351 36892 ft 403 kts 218°
2026-05-08 14:46 41.59446 -6.72944 36887 ft 402 kts 218°
2026-05-08 14:47 41.55004 -6.77509 36883 ft 402 kts 218°
2026-05-08 14:47 41.50560 -6.82034 36881 ft 402 kts 218°
2026-05-08 14:48 41.46108 -6.86548 36876 ft 402 kts 217°
2026-05-08 14:48 41.41656 -6.91052 36879 ft 402 kts 217°
2026-05-08 14:49 41.37205 -6.95546 36883 ft 401 kts 217°
2026-05-08 14:49 41.32784 -7.00003 36871 ft 401 kts 217°
2026-05-08 14:50 41.28332 -7.04484 36874 ft 401 kts 217°
2026-05-08 14:50 41.23879 -7.08957 36874 ft 401 kts 217°
2026-05-08 14:51 41.19425 -7.13425 36865 ft 401 kts 217°
2026-05-08 14:51 41.14979 -7.17875 36862 ft 400 kts 217°
2026-05-08 14:52 41.08314 -7.24533 36867 ft 400 kts 217°
2026-05-08 14:53 41.03872 -7.28960 36868 ft 400 kts 217°
2026-05-08 14:53 40.99415 -7.33395 36871 ft 400 kts 217°
2026-05-08 14:54 40.94967 -7.37813 36863 ft 400 kts 217°
2026-05-08 14:54 40.90514 -7.42229 36872 ft 400 kts 217°
2026-05-08 14:55 40.86055 -7.46643 36873 ft 400 kts 217°
2026-05-08 14:55 40.81598 -7.51047 36876 ft 401 kts 217°
2026-05-08 14:56 40.77131 -7.55454 36865 ft 401 kts 217°
2026-05-08 14:56 40.72668 -7.59850 36865 ft 400 kts 217°
2026-05-08 14:57 40.68219 -7.64223 36862 ft 399 kts 217°
2026-05-08 14:57 40.63778 -7.68582 36864 ft 397 kts 217°
2026-05-08 14:58 40.59346 -7.72925 36863 ft 397 kts 217°
2026-05-08 14:58 40.54921 -7.77253 36857 ft 396 kts 217°
2026-05-08 14:59 40.50530 -7.81541 36868 ft 396 kts 217°
2026-05-08 14:59 40.46082 -7.85877 36726 ft 398 kts 217°
2026-05-08 14:59 40.43843 -7.88058 36296 ft 399 kts 217°
2026-05-08 15:00 40.41624 -7.90217 35759 ft 396 kts 217°
2026-05-08 15:00 40.39438 -7.92341 35120 ft 397 kts 217°
2026-05-08 15:00 40.37213 -7.94502 34420 ft 398 kts 217°
2026-05-08 15:00 40.34987 -7.96662 33752 ft 398 kts 217°
2026-05-08 15:01 40.32764 -7.98817 32974 ft 397 kts 217°
2026-05-08 15:01 40.30544 -8.00968 32242 ft 397 kts 217°
2026-05-08 15:01 40.28332 -8.03109 31614 ft 395 kts 217°
2026-05-08 15:01 40.26139 -8.05229 31100 ft 389 kts 218°
2026-05-08 15:02 40.23971 -8.07323 30596 ft 385 kts 218°
2026-05-08 15:02 40.21825 -8.09395 30089 ft 381 kts 218°
2026-05-08 15:02 40.19698 -8.11447 29538 ft 378 kts 218°
2026-05-08 15:02 40.17598 -8.13473 29005 ft 373 kts 218°
2026-05-08 15:03 40.15519 -8.15476 28492 ft 369 kts 218°
2026-05-08 15:03 40.13462 -8.17457 27999 ft 365 kts 218°
2026-05-08 15:03 40.11431 -8.19411 27498 ft 361 kts 217°
2026-05-08 15:03 40.09416 -8.21349 27016 ft 358 kts 217°
2026-05-08 15:04 40.07411 -8.23276 26517 ft 356 kts 217°
2026-05-08 15:04 40.05423 -8.25184 26051 ft 354 kts 217°
2026-05-08 15:04 40.03445 -8.27081 25575 ft 352 kts 217°
2026-05-08 15:04 40.01472 -8.28947 25113 ft 350 kts 214°
2026-05-08 15:05 39.99270 -8.30280 24756 ft 347 kts 198°
2026-05-08 15:05 39.96914 -8.30826 24531 ft 346 kts 189°
2026-05-08 15:05 39.94467 -8.31178 24249 ft 361 kts 189°
2026-05-08 15:05 39.91941 -8.31526 24007 ft 367 kts 189°
2026-05-08 15:06 39.89403 -8.31884 23716 ft 365 kts 189°
2026-05-08 15:06 39.86912 -8.32248 23441 ft 363 kts 189°
2026-05-08 15:06 39.84407 -8.32758 23064 ft 356 kts 196°
2026-05-08 15:06 39.82104 -8.33874 22551 ft 352 kts 207°
2026-05-08 15:07 39.80017 -8.35457 22333 ft 342 kts 214°
2026-05-08 15:07 39.78133 -8.37240 22251 ft 329 kts 216°
2026-05-08 15:07 39.76337 -8.38936 22167 ft 317 kts 216°
2026-05-08 15:07 39.74573 -8.40590 21944 ft 310 kts 215°
2026-05-08 15:08 39.72804 -8.42241 21526 ft 309 kts 215°
2026-05-08 15:08 39.71651 -8.43315 21236 ft 309 kts 215°
2026-05-08 15:08 39.69342 -8.45462 20704 ft 308 kts 215°
2026-05-08 15:08 39.67604 -8.47076 20337 ft 306 kts 215°
2026-05-08 15:09 39.65877 -8.48679 19969 ft 304 kts 215°
2026-05-08 15:09 39.64158 -8.50274 19606 ft 303 kts 215°
2026-05-08 15:09 39.62444 -8.51861 19243 ft 302 kts 215°
2026-05-08 15:09 39.60741 -8.53439 18894 ft 300 kts 215°
2026-05-08 15:10 39.59047 -8.55007 18556 ft 298 kts 216°
2026-05-08 15:10 39.57362 -8.56566 18217 ft 297 kts 216°
2026-05-08 15:10 39.55680 -8.58121 17825 ft 296 kts 215°
2026-05-08 15:10 39.54016 -8.59658 17411 ft 289 kts 215°
2026-05-08 15:11 39.52381 -8.61169 16726 ft 289 kts 215°
2026-05-08 15:11 39.50741 -8.62683 16034 ft 289 kts 215°
2026-05-08 15:11 39.49105 -8.64192 15404 ft 288 kts 214°
2026-05-08 15:11 39.48026 -8.65186 15005 ft 286 kts 214°
2026-05-08 15:12 39.46413 -8.66673 14439 ft 284 kts 214°
2026-05-08 15:12 39.44804 -8.68155 13863 ft 283 kts 214°
2026-05-08 15:12 39.43201 -8.69629 13277 ft 282 kts 214°
2026-05-08 15:12 39.41620 -8.71085 12723 ft 277 kts 214°
2026-05-08 15:13 39.40054 -8.72525 12083 ft 276 kts 213°
2026-05-08 15:13 39.38499 -8.73954 11481 ft 274 kts 213°
2026-05-08 15:13 39.36939 -8.75386 10975 ft 276 kts 213°
2026-05-08 15:13 39.35386 -8.76812 10702 ft 272 kts 213°
2026-05-08 15:14 39.33852 -8.78219 10407 ft 269 kts 213°
2026-05-08 15:14 39.32326 -8.79619 10165 ft 265 kts 213°
2026-05-08 15:14 39.30857 -8.80966 10105 ft 254 kts 213°
2026-05-08 15:14 39.29444 -8.82263 10027 ft 244 kts 212°
2026-05-08 15:15 39.28084 -8.83508 9943 ft 236 kts 212°
2026-05-08 15:15 39.26765 -8.84715 9688 ft 229 kts 212°
2026-05-08 15:15 39.25418 -8.85830 9180 ft 232 kts 205°
2026-05-08 15:15 39.23977 -8.86741 8914 ft 230 kts 202°
2026-05-08 15:16 39.22528 -8.87611 8678 ft 229 kts 202°
2026-05-08 15:16 39.21092 -8.88476 8430 ft 227 kts 203°
2026-05-08 15:16 39.19666 -8.89344 8174 ft 226 kts 203°
2026-05-08 15:16 39.18244 -8.90215 7888 ft 227 kts 203°
2026-05-08 15:17 39.16827 -8.91091 7672 ft 224 kts 203°
2026-05-08 15:17 39.15441 -8.91951 7292 ft 221 kts 203°
2026-05-08 15:17 39.14052 -8.92814 6836 ft 222 kts 203°
2026-05-08 15:17 39.12649 -8.93685 6513 ft 224 kts 203°
2026-05-08 15:18 39.11264 -8.94550 6388 ft 218 kts 203°
2026-05-08 15:18 39.09892 -8.95406 6109 ft 220 kts 203°
2026-05-08 15:18 39.08515 -8.96264 5859 ft 220 kts 203°
2026-05-08 15:18 39.07155 -8.97114 5697 ft 217 kts 203°
2026-05-08 15:19 39.05793 -8.97964 5463 ft 217 kts 203°
2026-05-08 15:19 39.04433 -8.98810 5236 ft 217 kts 203°
2026-05-08 15:19 39.03080 -8.99655 5002 ft 216 kts 203°
2026-05-08 15:19 39.01738 -9.00493 4831 ft 212 kts 203°
2026-05-08 15:20 39.00435 -9.01305 4770 ft 203 kts 203°
2026-05-08 15:20 38.99203 -9.02075 4655 ft 191 kts 203°
2026-05-08 15:20 38.98031 -9.02830 4370 ft 184 kts 202°
2026-05-08 15:20 38.96904 -9.03493 4140 ft 172 kts 201°
2026-05-08 15:21 38.95828 -9.04090 3906 ft 166 kts 200°
2026-05-08 15:21 38.94775 -9.04659 3692 ft 163 kts 200°
2026-05-08 15:21 38.93764 -9.05204 3482 ft 155 kts 200°
2026-05-08 15:21 38.92763 -9.05739 3278 ft 156 kts 199°
2026-05-08 15:22 38.91747 -9.06284 3013 ft 159 kts 200°
2026-05-08 15:22 38.90735 -9.06827 2834 ft 160 kts 199°
2026-05-08 15:22 38.89730 -9.07365 2634 ft 156 kts 199°
2026-05-08 15:22 38.88706 -9.07913 2454 ft 160 kts 199°
2026-05-08 15:23 38.87682 -9.08469 2217 ft 161 kts 200°
2026-05-08 15:23 38.86654 -9.09024 1970 ft 160 kts 200°
2026-05-08 15:23 38.85648 -9.09556 1747 ft 149 kts 199°
2026-05-08 15:23 38.84719 -9.10048 1566 ft 140 kts 199°
2026-05-08 15:24 38.83859 -9.10511 1399 ft 129 kts 200°
2026-05-08 15:24 38.83043 -9.10953 1233 ft 129 kts 201°
2026-05-08 15:24 38.82181 -9.11423 1031 ft 139 kts 199°
2026-05-08 15:24 38.81313 -9.11876 836 ft 134 kts 201°
2026-05-08 15:25 38.80435 -9.12369 655 ft 140 kts 201°
2026-05-08 15:25 38.79555 -9.12830 455 ft 136 kts 201°
2026-05-08 15:25 38.78709 -9.13285 357 ft 122 kts 201°
2026-05-08 15:25 38.78110 -9.13604 360 ft 60 kts 202°
2026-05-08 15:26 38.77794 -9.13758 353 ft 41 kts 188°
2026-05-08 15:26 38.77572 -9.13756 351 ft 24 kts 178°
2026-05-08 15:26 38.77439 -9.13750 355 ft 14 kts 180°
2026-05-08 15:26 38.77349 -9.13783 358 ft 13 kts 202°
2026-05-08 15:27 38.77265 -9.13828 355 ft 13 kts 202°
2026-05-08 15:27 38.77184 -9.13872 351 ft 13 kts 203°
2026-05-08 15:27 38.77098 -9.13896 354 ft 14 kts 179°
2026-05-08 15:27 38.76994 -9.13873 350 ft 15 kts 167°
2026-05-08 15:28 38.76891 -9.13846 354 ft 15 kts 166°
2026-05-08 15:28 38.76794 -9.13818 359 ft 14 kts 168°
2026-05-08 15:28 38.76719 -9.13798 350 ft 8 kts 167°
2026-05-08 15:28 38.76691 -9.13790 350 ft 0 kts 167°
2026-05-08 15:30 38.76690 -9.13789 350 ft 1 kts 167°
2026-05-08 15:30 38.76667 -9.13783 356 ft 6 kts 168°
2026-05-08 15:30 38.76622 -9.13740 354 ft 11 kts 104°
2026-05-08 15:30 38.76583 -9.13669 350 ft 11 kts 171°
2026-05-08 15:31 38.76540 -9.13736 356 ft 11 kts 258°
2026-05-08 15:31 38.76510 -9.13793 350 ft 7 kts 183°
2026-05-08 15:31 38.76465 -9.13780 350 ft 5 kts 168°
2026-05-08 15:31 38.76454 -9.13777 355 ft 0 kts 168°